Vorticity
1 19 7 -3 -2 0 2 3 -4 6 20 1 6 11 16 11 24 -10 -8 22 25 32 13 18 16 13 26 11 12 8 6 8 2 -2 -1 -6 14 9 12 12 16 12 12 7
3 12 13 6 10 3 5 8 7 8 9 8 13 13 20 -1 9 9 -9 -12 8 7 8 9 4 -0 11 2 0 4 2 -4 -9 -12 4 8 5 10 11 9 6 9 6 6
-2 8 0 8 6 11 23 29 5 8 16 16 15 13 6 8 21 14 3 -9 11 13 4 31 12 6 7 7 6 8 8 4 3 4 20 17 9 7 13 19 15 12 12 12
32 14 2 -4 3 -2 12 -8 9 5 30 5 11 11 11 12 9 30 17 6 19 -15 17 43 -20 13 20 16 10 8 -1 29 23 16 14 11 11 11 12 16 10 15 20 10
-10 12 29 19 6 -0 19 -7 5 19 12 4 23 9 13 13 14 12 26 31 17 11 -19 36 19 15 3 13 7 -0 19 17 9 8 12 12 15 14 14 15 11 13 12 7
12 19 23 5 11 17 24 11 0 9 9 38 5 4 17 3 3 8 8 24 20 28 -16 -4 0 7 5 7 6 16 9 13 13 7 5 6 11 11 11 12 16 12 9 12
22 27 0 23 27 33 -10 21 39 38 28 -6 27 28 -10 -39 -12 36 49 9 25 47 34 5 24 -8 -6 -4 15 6 9 12 9 17 5 6 8 13 11 13 12 13 10 14
15 29 -17 -7 -9 6 18 10 -9 25 15 17 8 19 1 10 -0 16 -2 29 32 27 16 7 -4 8 -6 11 8 7 13 10 10 9 24 7 9 11 9 13 12 13 15 18
14 6 18 7 -1 -7 -1 15 -5 13 9 28 -4 -1 4 -1 46 21 -1 42 12 5 22 -4 13 12 14 7 8 10 6 7 14 8 15 20 7 11 11 14 15 16 19 12
8 25 8 13 7 13 1 4 32 9 16 11 30 8 -24 -4 31 59 42 25 6 16 5 9 3 8 2 2 7 1 4 4 4 9 8 19 20 8 12 12 13 15 14 -3
13 23 -0 -2 10 3 -14 33 6 4 13 1 11 10 16 8 16 13 14 31 14 20 9 -3 7 9 3 4 9 3 12 11 14 5 5 10 17 18 12 10 13 14 14 1
12 17 10 -2 42 46 37 38 21 26 -16 14 3 3 -0 30 33 29 65 46 -35 12 10 5 2 7 5 6 10 12 10 12 9 11 12 12 15 26 13 13 18 5 5 2
12 -4 17 10 19 -9 -21 21 7 6 15 15 20 -19 -4 26 28 38 -20 -17 18 16 20 6 12 12 -2 7 -16 3 4 -1 8 6 11 7 13 23 23 13 21 8 -0 7
7 19 16 -21 -16 5 1 -1 19 17 7 -14 1 3 8 20 17 21 -9 -8 -2 -6 8 8 15 6 11 -3 9 5 4 -0 4 9 8 8 13 25 21 19 15 15 6 3
8 3 24 14 16 11 4 17 12 6 10 7 -10 9 3 17 21 35 7 -0 2 36 11 4 9 4 -3 10 6 -4 9 4 2 6 11 7 -0 14 20 31 19 22 15 7
13 -3 18 4 11 10 10 18 18 15 39 22 23 21 12 34 41 26 5 -8 5 -2 -1 -5 3 7 5 3 2 4 6 11 8 9 12 13 12 8 25 18 19 30 15 -6
67 11 2 13 2 14 46 -0 10 -3 19 18 23 20 16 12 -6 -0 5 5 2 3 10 8 0 -4 -6 1 2 4 8 9 12 8 12 7 5 10 26 20 18 20 10 5
2 20 23 -6 40 18 2 3 13 -2 10 -3 8 8 13 10 12 3 -3 10 4 1 -6 -6 3 2 2 1 3 6 13 12 16 18 15 7 7 5 7 29 6 25 2 13
29 12 31 6 1 -4 -11 10 14 -3 7 16 24 18 18 6 -2 3 2 2 3 4 5 8 16 11 10 10 10 11 21 20 18 16 14 6 1 4 11 33 22 27 -7 22
6 11 36 37 5 18 -15 45 17 23 20 -19 7 11 15 16 26 21 29 27 27 29 26 15 14 10 22 16 19 8 17 14 11 14 15 8 15 16 6 1 63 3 1 12
2 24 10 13 27 1 -31 8 41 11 -10 13 16 17 22 19 11 11 16 15 13 12 10 20 18 12 7 9 10 10 11 8 12 10 10 10 9 1 11 13 30 24 5 25
18 30 4 6 26 9 10 9 31 12 18 11 10 8 20 8 10 8 5 6 6 7 8 7 13 14 15 15 8 9 12 12 8 10 14 19 10 8 14 5 -5 43 11 -2
-0 28 13 28 5 -10 16 -10 15 15 24 8 10 13 8 7 5 5 6 7 7 6 7 8 8 8 10 17 16 12 12 9 3 7 19 20 14 10 22 6 18 26 4 37
2 10 12 38 -31 28 15 10 12 11 11 11 10 11 10 11 12 12 9 8 11 11 10 10 9 8 8 11 19 12 7 6 9 9 13 24 23 26 2 21 23 38 29 19
26 1 4 12 2 36 -10 10 10 11 11 14 13 12 14 17 16 14 13 13 15 16 16 12 14 9 12 20 6 17 20 19 10 18 22 22 23 9 4 -4 31 35 26 24
-6 8 6 5 12 23 5 11 9 9 9 7 7 10 10 10 15 12 13 15 15 16 16 16 14 12 15 15 10 13 25 16 16 25 12 17 8 20 13 11 11 38 24 24
Height
3062 3062 3062 3063 3062 3060 3060 3060 3055 3054 3056 3056 3054 3052 3051 3052 3055 3055 3055 3054 3055 3057 3057 3059 3063 3065 3064 3068 3071 3074 3075 3075 3076 3076 3076 3078 3082 3085 3087 3089 3089 3092 3094 3096
3061 3058 3058 3058 3059 3058 3056 3053 3052 3048 3050 3051 3048 3045 3043 3043 3045 3046 3047 3047 3048 3049 3052 3053 3055 3056 3056 3059 3064 3067 3070 3071 3071 3071 3071 3071 3072 3076 3078 3079 3082 3082 3086 3088
3056 3054 3053 3053 3054 3052 3048 3047 3047 3046 3043 3042 3041 3037 3035 3033 3036 3037 3038 3040 3041 3042 3044 3046 3048 3048 3048 3050 3055 3062 3065 3066 3067 3067 3066 3065 3062 3064 3068 3071 3075 3076 3079 3081
3049 3049 3048 3048 3045 3047 3041 3043 3042 3038 3037 3033 3038 3030 3025 3027 3026 3027 3028 3033 3035 3040 3038 3039 3043 3043 3041 3042 3049 3054 3057 3056 3056 3057 3057 3056 3057 3056 3059 3064 3066 3067 3070 3073
3047 3044 3044 3043 3041 3042 3037 3035 3036 3033 3030 3030 3027 3029 3003 3021 3019 3022 3021 3023 3028 3035 3037 3036 3033 3034 3035 3036 3042 3048 3048 3047 3048 3050 3049 3049 3050 3050 3051 3056 3056 3058 3062 3066
3042 3043 3041 3040 3038 3037 3034 3029 3026 3026 3025 3023 3019 3024 3010 3016 3016 3015 3014 3016 3018 3022 3028 3030 3029 3027 3028 3031 3037 3040 3041 3041 3041 3043 3043 3041 3043 3044 3045 3047 3048 3051 3055 3059
3038 3036 3036 3036 3032 3029 3027 3024 3020 3021 3018 3014 3014 3015 3010 3007 3009 3008 3010 3011 3009 3012 3020 3021 3019 3020 3024 3026 3032 3035 3036 3034 3037 3037 3036 3036 3036 3037 3038 3040 3041 3044 3048 3051
3036 3030 3031 3029 3032 3031 3026 3028 3027 3014 3012 3009 3011 3004 2997 3003 3001 3001 3005 3008 3004 3008 3010 3013 3016 3017 3019 3023 3028 3031 3032 3029 3029 3031 3031 3030 3029 3030 3031 3033 3035 3037 3040 3044
3035 3031 3028 3028 3026 3028 3024 3022 3022 3018 3012 3011 3004 2997 2998 2997 2991 2992 2997 3001 2999 3002 3005 3008 3011 3014 3016 3019 3024 3026 3027 3027 3025 3024 3024 3023 3023 3024 3024 3026 3027 3030 3034 3038
3033 3027 3027 3024 3023 3021 3023 3020 3017 3017 3005 3001 2995 2994 2994 2995 2991 2986 2991 2994 2998 3000 3004 3004 3006 3009 3015 3018 3021 3021 3021 3022 3022 3019 3017 3017 3017 3017 3018 3019 3021 3023 3028 3031
3030 3027 3022 3022 3020 3019 3018 3017 3015 3014 3009 3002 3002 2995 2995 2991 2987 2985 2986 2990 2991 2999 2999 3000 3007 3010 3012 3015 3014 3013 3015 3015 3015 3014 3012 3011 3010 3010 3011 3012 3014 3017 3021 3024
3029 3024 3018 3017 3015 3014 3014 3014 3012 3007 3006 3003 3002 2998 2996 2991 2986 2985 2981 2987 2985 2994 2991 3001 3005 3007 3009 3008 3007 3011 3012 3011 3010 3008 3007 3005 3004 3003 3003 3005 3007 3011 3014 3018
3025 3023 3018 3012 3015 3011 3011 3012 3012 3008 3006 3004 3003 2997 2994 2989 2985 2985 2986 2991 3001 2998 2998 3000 3003 3002 3004 3005 3004 3007 3006 3006 3005 3002 3001 3000 2997 2995 2995 2997 2999 3004 3007 3009
3024 3021 3022 3020 3019 3016 3012 3009 3007 3006 3004 3002 3002 2998 2996 2993 2985 2983 2986 2990 2995 3001 3001 2999 2998 2998 3001 3001 3002 3002 3002 3001 2998 2997 2995 2994 2992 2989 2987 2989 2990 2994 2999 3002
3022 3019 3017 3015 3013 3011 3010 3007 3005 3003 3001 3001 2999 2998 2997 2993 2990 2982 2984 2989 2991 2993 2993 2992 2993 2995 2996 2998 2998 2999 2998 2996 2992 2990 2989 2987 2986 2984 2980 2979 2982 2985 2991 2994
3020 3016 3012 3006 3007 3008 3006 3004 3002 3000 2997 2996 2996 2998 2996 2994 2992 2990 2991 2993 2991 2987 2988 2990 2990 2990 2990 2993 2995 2995 2992 2989 2986 2983 2981 2980 2978 2977 2974 2972 2974 2977 2983 2987
3014 3015 3012 3007 3006 3003 3001 3001 3001 2999 2996 2995 2996 2998 2996 2996 2994 2992 2992 2991 2989 2988 2990 2990 2988 2987 2988 2988 2988 2986 2983 2981 2978 2975 2973 2972 2971 2969 2967 2965 2967 2970 2974 2978
3013 3012 3009 3005 3004 3004 3003 3000 2999 2998 2995 2994 2995 2994 2994 2993 2991 2990 2988 2987 2987 2987 2986 2985 2984 2983 2980 2980 2979 2976 2973 2970 2967 2966 2965 2964 2963 2961 2960 2959 2959 2962 2966 2970
3015 3011 3006 3005 3004 3002 3000 2998 2997 2996 2997 2995 2993 2992 2991 2991 2988 2987 2985 2983 2981 2981 2980 2978 2976 2974 2973 2972 2971 2968 2965 2962 2959 2958 2957 2957 2956 2955 2953 2953 2951 2954 2956 2961
3013 3009 3008 3003 3004 3003 3004 2997 2996 2994 2994 2992 2991 2989 2987 2985 2983 2979 2979 2977 2976 2974 2972 2970 2968 2967 2967 2966 2964 2960 2957 2954 2953 2951 2949 2948 2948 2947 2946 2945 2943 2945 2949 2953
3011 3009 3009 3006 3003 3003 3001 2997 2992 2994 2999 2991 2989 2985 2982 2979 2979 2977 2976 2975 2973 2972 2970 2968 2963 2959 2958 2959 2956 2951 2948 2946 2945 2944 2942 2940 2939 2938 2937 2937 2936 2938 2939 2942
3016 3013 3011 3009 3007 3007 3002 3000 2996 2998 2994 2992 2988 2984 2981 2980 2980 2978 2976 2974 2971 2969 2966 2963 2958 2954 2950 2946 2944 2942 2941 2940 2937 2936 2934 2931 2930 2928 2928 2928 2928 2929 2931 2934
3019 3018 3016 3014 3012 3009 3004 3001 2999 2995 2991 2989 2986 2983 2981 2979 2978 2976 2974 2971 2968 2963 2961 2958 2954 2950 2946 2942 2939 2936 2934 2933 2930 2927 2924 2921 2919 2918 2918 2918 2918 2918 2921 2924
3018 3016 3015 3013 3011 3007 3003 3001 2997 2993 2990 2988 2985 2982 2980 2977 2973 2970 2967 2963 2959 2957 2954 2951 2947 2943 2940 2936 2932 2930 2928 2925 2922 2919 2915 2911 2908 2908 2909 2908 2907 2905 2909 2914
3016 3015 3013 3011 3009 3005 3003 2999 2996 2993 2990 2987 2985 2981 2978 2975 2971 2968 2964 2960 2956 2952 2949 2944 2941 2938 2933 2930 2926 2922 2919 2916 2913 2910 2907 2903 2902 2902 2901 2899 2896 2895 2898 2901
3014 3013 3012 3009 3006 3003 3000 2997 2995 2993 2990 2987 2984 2981 2977 2973 2969 2965 2961 2957 2952 2948 2944 2940 2935 2932 2929 2925 2920 2916 2912 2908 2904 2902 2901 2898 2897 2895 2892 2891 2888 2887 2891 2896